This is the latest recevied weather packets stored in our database for station/object WA1NHP. If no packets are shown the sender has not sent any weather packets the latest 10 day(s).
| Time | Temp. | Humidity | Pressure | Rain* | Wind** | Luminosity | Snow |
|---|---|---|---|---|---|---|---|
| 1788530043 | 18.33° C | 99% | 1023.9 hPa | 0 mm | - | 265 W/m² | - |
| 1788529443 | 17.78° C | 99% | 1023.9 hPa | 0 mm | - | 162 W/m² | - |
| 1788528844 | 17.78° C | 99% | 1023.9 hPa | 0 mm | - | 243 W/m² | - |
| 1788528244 | 17.22° C | 99% | 1023.9 hPa | 0 mm | - | 156 W/m² | - |
| 1788527644 | 17.22° C | 99% | 1023.9 hPa | 0 mm | - | 69 W/m² | - |
| 1788527044 | 17.22° C | 99% | 1023.9 hPa | 0 mm | - | 60 W/m² | - |
| 1788526444 | 16.67° C | 99% | 1023.9 hPa | 0 mm | - | 54 W/m² | - |
| 1788525843 | 16.11° C | 99% | 1023.9 hPa | 0 mm | - | 60 W/m² | - |
| 1788525244 | 15.56° C | 99% | 1023.9 hPa | 0 mm | - | 47 W/m² | - |
| 1788524644 | 15.56° C | 99% | 1023.9 hPa | 0 mm | - | 46 W/m² | - |
| 1788524043 | 15.56° C | 99% | 1023.9 hPa | 0 mm | - | 42 W/m² | - |
| 1788523444 | 15.56° C | 99% | 1023.9 hPa | 0 mm | - | 37 W/m² | - |
| 1788522844 | 15° C | 99% | 1023.9 hPa | 0 mm | - | 35 W/m² | - |
| 1788522244 | 15° C | 99% | 1023.9 hPa | 0 mm | - | 32 W/m² | - |
| 1788521644 | 14.44° C | 99% | 1023.9 hPa | 0 mm | - | 28 W/m² | - |
| 1788521043 | 14.44° C | 99% | 1023.9 hPa | 0 mm | - | 23 W/m² | - |
| 1788520444 | 13.89° C | 99% | 1023.9 hPa | 0 mm | - | 19 W/m² | - |
| 1788519844 | 13.89° C | 99% | 1023.9 hPa | 0 mm | - | 16 W/m² | - |
| 1788519244 | 13.89° C | 99% | 1023.9 hPa | 0 mm | - | 14 W/m² | - |
| 1788518643 | 13.89° C | 99% | 1023.9 hPa | 0 mm | - | 12 W/m² | - |
| 1788518044 | 13.89° C | 99% | 1023.9 hPa | 0 mm | - | 5 W/m² | - |
| 1788517444 | 13.89° C | 99% | 1023.9 hPa | 0 mm | - | 0 W/m² | - |
| 1788516843 | 13.89° C | 99% | 1023.9 hPa | 0 mm | - | 0 W/m² | - |
| 1788516243 | 14.44° C | 99% | 1023.9 hPa | 0 mm | - | 0 W/m² | - |
| 1788515644 | 14.44° C | 99% | 1023.9 hPa | 0 mm | - | 0 W/m² | - |
* Rain latest hour (hover to see other rain measurements)
** Current wind speed in m/s (hover to see current wind gust speed)